Starlink 5863

operational
NORAD ID: 55922 Int'l Des: 2023-037 Owner: SPXS Country: US Constellation: starlink
LEOCIRCULAR

About Starlink 5863

Description loading...

Live Position

Loading 3D Globe...

Upcoming Passes

Altitude History

Altitude vs Time

uPlot chart will show altitude changes over time

Two-Line Element Set

1 55922U 23037J 25304.61489568 .00000592 00000-0 57416-4 0 9992
2 55922 69.9986 269.8712 0002932 269.1730 90.9093 14.98330025144151
Epoch: Oct 31, 2025 • Age: 7 hours

Current Status

Altitude 584.1 km
Velocity 7.57 km/s
Sub-Earth Point 62.27°N, 49.91°W
Launch Date Mar 17, 2023
Age 2.6 years
Type internet

Technical Details

Classification Payload
Mass 305.00 kg
Dry Mass 290.00 kg
Total Mass 305.00 kg
Length 0.20 m
Diameter 2.80 m
Span 9.00 m
Shape Box + pan
Manufacturer SPXS
Bus Type Starlink
Phase Status In Orbit
Owner/State SPXS/US

Large Constellations

Loading constellations...